TimeAKDT,TemperatureF,Dew PointF,Humidity,Sea Level PressureIn,VisibilityMPH,Wind Direction,Wind SpeedMPH,Gust SpeedMPH,PrecipitationIn,Events,Conditions,WindDirDegrees,DateUTC
12:16 AM,57.2,50.0,77,30.04,10.0,North,3.5,-,N/A,,Overcast,360,2013-07-08 08:16:00
12:36 AM,55.4,50.0,82,30.04,7.0,Calm,Calm,-,N/A,,Overcast,0,2013-07-08 08:36:00
12:56 AM,55.4,50.0,82,30.03,9.0,Calm,Calm,-,N/A,,Overcast,0,2013-07-08 08:56:00
1:16 AM,55.4,51.8,88,30.02,10.0,East,3.5,-,0.01,,Mostly Cloudy,100,2013-07-08 09:16:00
1:36 AM,55.4,51.8,88,30.02,9.0,ESE,6.9,-,0.01,,Partly Cloudy,120,2013-07-08 09:36:00
1:56 AM,55.4,51.8,88,30.02,10.0,ESE,3.5,-,0.02,,Mostly Cloudy,110,2013-07-08 09:56:00
2:16 AM,55.4,51.8,88,30.01,10.0,SE,5.8,-,N/A,,Overcast,130,2013-07-08 10:16:00
2:36 AM,55.4,51.8,88,30.01,10.0,SSE,8.1,-,N/A,,Overcast,160,2013-07-08 10:36:00
2:56 AM,55.4,51.8,88,30.01,10.0,ESE,5.8,-,N/A,,Overcast,110,2013-07-08 10:56:00
3:16 AM,55.4,51.8,88,30.01,10.0,SE,4.6,-,N/A,,Overcast,140,2013-07-08 11:16:00
3:36 AM,55.4,51.8,88,30.01,10.0,South,5.8,-,N/A,,Overcast,170,2013-07-08 11:36:00
3:56 AM,55.4,51.8,88,30.00,10.0,South,3.5,-,N/A,,Overcast,170,2013-07-08 11:56:00
4:16 AM,57.2,51.8,82,30.00,7.0,East,5.8,-,0.01,,Overcast,100,2013-07-08 12:16:00
4:36 AM,57.2,51.8,82,30.01,10.0,West,3.5,-,0.02,,Overcast,260,2013-07-08 12:36:00
4:56 AM,55.4,51.8,88,30.01,4.0,NW,4.6,-,0.03,,Overcast,310,2013-07-08 12:56:00
5:16 AM,55.4,51.8,88,30.00,2.5,Calm,Calm,-,0.02,,Overcast,0,2013-07-08 13:16:00
5:36 AM,55.4,51.8,88,30.00,3.0,Calm,Calm,-,0.02,,Overcast,0,2013-07-08 13:36:00
5:56 AM,55.4,53.6,94,29.99,5.0,SE,4.6,-,0.02,,Overcast,130,2013-07-08 13:56:00
6:16 AM,55.4,53.6,94,29.98,10.0,SE,3.5,-,N/A,,Overcast,130,2013-07-08 14:16:00
6:36 AM,57.2,53.6,88,29.98,10.0,East,9.2,-,0.01,,Overcast,100,2013-07-08 14:36:00
6:56 AM,57.2,53.6,88,29.98,10.0,WNW,5.8,-,0.01,,Overcast,290,2013-07-08 14:56:00
7:16 AM,57.2,53.6,88,29.98,10.0,WNW,4.6,-,N/A,,Overcast,300,2013-07-08 15:16:00
7:36 AM,57.2,53.6,88,29.98,10.0,WSW,6.9,-,0.02,,Overcast,250,2013-07-08 15:36:00
7:56 AM,57.2,53.6,88,29.98,10.0,NNE,3.5,-,0.03,,Overcast,30,2013-07-08 15:56:00
8:16 AM,57.2,53.6,88,29.99,10.0,NNE,3.5,-,N/A,,Overcast,20,2013-07-08 16:16:00
8:36 AM,57.2,53.6,88,29.98,10.0,SW,3.5,-,0.01,,Overcast,220,2013-07-08 16:36:00
8:56 AM,57.2,53.6,88,29.98,10.0,NNW,3.5,-,0.01,,Overcast,330,2013-07-08 16:56:00
9:16 AM,57.2,53.6,88,29.98,10.0,Calm,Calm,-,N/A,,Overcast,0,2013-07-08 17:16:00
9:36 AM,57.2,53.6,88,29.98,10.0,SSE,3.5,-,N/A,,Overcast,160,2013-07-08 17:36:00
9:56 AM,59.0,53.6,82,29.97,10.0,South,6.9,-,N/A,,Overcast,170,2013-07-08 17:56:00
10:16 AM,59.0,53.6,82,29.98,10.0,SW,3.5,-,0.03,,Overcast,220,2013-07-08 18:16:00
10:36 AM,57.2,53.6,88,29.99,10.0,South,6.9,-,0.10,,Overcast,190,2013-07-08 18:36:00
10:56 AM,57.2,53.6,88,29.99,7.0,Calm,Calm,-,0.14,,Overcast,0,2013-07-08 18:56:00
11:16 AM,57.2,53.6,88,29.98,7.0,Calm,Calm,-,0.02,,Overcast,0,2013-07-08 19:16:00
11:36 AM,57.2,53.6,88,29.99,7.0,West,4.6,-,0.03,,Overcast,280,2013-07-08 19:36:00
11:56 AM,57.2,53.6,88,29.99,7.0,Calm,Calm,-,0.04,,Overcast,0,2013-07-08 19:56:00
12:16 PM,59.0,53.6,82,29.99,7.0,WSW,3.5,-,0.01,,Overcast,240,2013-07-08 20:16:00
12:36 PM,59.0,53.6,82,29.99,7.0,SW,10.4,16.1,0.01,,Overcast,230,2013-07-08 20:36:00
12:56 PM,59.0,53.6,82,30.00,7.0,SW,11.5,16.1,0.02,,Overcast,220,2013-07-08 20:56:00
1:16 PM,57.2,51.8,82,30.01,7.0,West,12.7,18.4,N/A,,Overcast,260,2013-07-08 21:16:00
1:36 PM,57.2,51.8,82,30.01,7.0,WSW,6.9,-,0.01,,Overcast,250,2013-07-08 21:36:00
1:56 PM,57.2,53.6,88,30.01,10.0,WSW,4.6,-,0.01,,Overcast,250,2013-07-08 21:56:00
2:16 PM,57.2,51.8,82,30.02,10.0,WSW,4.6,-,N/A,,Overcast,240,2013-07-08 22:16:00
2:36 PM,57.2,51.8,82,30.02,10.0,SW,4.6,-,N/A,,Overcast,220,2013-07-08 22:36:00
2:56 PM,57.2,53.6,88,30.02,10.0,Calm,Calm,-,N/A,,Overcast,0,2013-07-08 22:56:00
3:16 PM,57.2,51.8,82,30.03,10.0,NE,3.5,-,N/A,,Overcast,50,2013-07-08 23:16:00
3:36 PM,55.4,51.8,88,30.02,10.0,NNE,6.9,-,N/A,,Overcast,30,2013-07-08 23:36:00
3:56 PM,57.2,51.8,82,30.03,10.0,NNE,4.6,-,N/A,,Overcast,30,2013-07-08 23:56:00
4:16 PM,57.2,51.8,82,30.04,10.0,Calm,Calm,-,N/A,,Overcast,0,2013-07-09 00:16:00
4:36 PM,57.2,51.8,82,30.04,10.0,WNW,3.5,-,N/A,,Overcast,290,2013-07-09 00:36:00
4:56 PM,57.2,51.8,82,30.04,7.0,WNW,8.1,-,N/A,,Overcast,290,2013-07-09 00:56:00
5:16 PM,55.4,50.0,82,30.04,7.0,West,12.7,-,0.01,,Overcast,260,2013-07-09 01:16:00
5:36 PM,55.4,50.0,82,30.05,7.0,West,10.4,-,0.04,,Overcast,260,2013-07-09 01:36:00
5:56 PM,55.4,50.0,82,30.05,7.0,West,9.2,-,0.08,,Overcast,260,2013-07-09 01:56:00
6:16 PM,55.4,51.8,88,30.05,7.0,WSW,5.8,-,0.02,,Overcast,240,2013-07-09 02:16:00
6:36 PM,55.4,48.2,77,30.05,7.0,WSW,9.2,-,0.02,,Overcast,240,2013-07-09 02:36:00
6:56 PM,55.4,50.0,82,30.05,10.0,SW,5.8,-,0.02,,Overcast,230,2013-07-09 02:56:00
7:16 PM,55.4,48.2,77,30.06,10.0,WSW,4.6,-,N/A,,Overcast,240,2013-07-09 03:16:00
7:36 PM,55.4,46.4,72,30.07,10.0,Calm,Calm,-,N/A,,Overcast,0,2013-07-09 03:36:00
7:56 PM,55.4,44.6,67,30.07,10.0,West,10.4,17.3,N/A,,Mostly Cloudy,260,2013-07-09 03:56:00
8:16 PM,55.4,46.4,72,30.08,10.0,WSW,3.5,-,N/A,,Mostly Cloudy,240,2013-07-09 04:16:00
8:36 PM,55.4,44.6,67,30.08,10.0,West,3.5,-,N/A,,Mostly Cloudy,280,2013-07-09 04:36:00
8:56 PM,55.4,44.6,67,30.09,10.0,WNW,5.8,-,N/A,,Mostly Cloudy,290,2013-07-09 04:56:00
9:16 PM,55.4,44.6,67,30.09,10.0,WNW,6.9,-,N/A,,Mostly Cloudy,290,2013-07-09 05:16:00
9:36 PM,53.6,44.6,72,30.10,10.0,West,5.8,-,N/A,,Mostly Cloudy,280,2013-07-09 05:36:00
9:56 PM,53.6,46.4,77,30.10,10.0,WNW,3.5,-,N/A,,Overcast,290,2013-07-09 05:56:00
10:16 PM,53.6,46.4,77,30.11,10.0,Calm,Calm,-,N/A,,Overcast,0,2013-07-09 06:16:00
10:36 PM,53.6,46.4,77,30.11,10.0,Calm,Calm,-,N/A,,Overcast,0,2013-07-09 06:36:00
10:56 PM,53.6,44.6,72,30.12,10.0,Calm,Calm,-,N/A,,Overcast,0,2013-07-09 06:56:00
11:16 PM,53.6,44.6,72,30.12,10.0,Calm,Calm,-,N/A,,Overcast,0,2013-07-09 07:16:00
11:36 PM,53.6,44.6,72,30.12,10.0,SSW,5.8,-,N/A,,Overcast,200,2013-07-09 07:36:00
11:56 PM,51.8,44.6,76,30.13,10.0,SW,6.9,-,N/A,,Overcast,230,2013-07-09 07:56:00